START_TIME,STEP,MOV.,M15,t_acc.,M20,t_acc.
1981-08-27 21:00:44.660 ,2,0,0.,24.0,0.,24.0
1981-08-27 21:01:08.660 ,1,1,0.,24.0,0.,24.0
1981-08-27 21:01:32.660 ,1,0,0.,24.0,0.,24.0
1981-08-27 21:01:56.660 ,0,1,0.,24.0,0.,24.0
1981-08-27 21:02:20.660 ,0,0,0.,24.0,0.,24.0
1981-08-27 21:02:44.660 ,0,1,0.,24.0,0.,24.0
1981-08-27 21:03:08.660 ,0,0,0.,24.0,0.,24.0
1981-08-27 21:03:32.660 ,1,1,0.,24.0,0.,24.0
1981-08-27 21:03:56.660 ,1,0,0.,24.0,0.,24.0
1981-08-27 21:04:20.660 ,2,1,0.,24.0,0.,24.0
1981-08-27 21:04:44.660 ,2,0,0.,24.0,0.,24.0
1981-08-27 21:05:08.660 ,3,1,0.,24.0,0.,24.0
1981-08-27 21:05:32.660 ,3,0,0.,24.0,0.,24.0
1981-08-27 21:05:56.660 ,4,1,0.,24.0,0.,24.0
1981-08-27 21:06:20.660 ,4,0,0.,24.0,0.,24.0
1981-08-27 21:06:44.660 ,5,1,0.,24.0,0.,24.0
1981-08-27 21:07:08.660 ,5,0,0.,24.0,0.,24.0
1981-08-27 21:07:32.660 ,6,1,0.,24.0,0.,24.0
1981-08-27 21:07:56.660 ,6,0,0.,24.0,0.,24.0
1981-08-27 21:08:20.660 ,7,1,0.,24.0,0.,24.0
1981-08-27 21:08:44.660 ,7,0,0.,24.0,0.,24.0
1981-08-27 21:09:08.660 ,7,1,0.,24.0,0.,24.0
1981-08-27 21:09:32.660 ,6,1,0.,24.0,0.,24.0
1981-08-27 21:09:56.660 ,5,1,0.,24.0,0.,24.0
1981-08-27 21:10:20.660 ,4,1,0.,24.0,0.,24.0
1981-08-27 21:10:44.660 ,3,1,0.,24.0,0.,24.0
1981-08-27 21:11:08.660 ,2,1,0.,24.0,0.,24.0
1981-08-27 21:11:32.660 ,1,1,0.,24.0,0.,24.0
1981-08-27 21:11:56.660 ,0,1,0.,24.0,0.,24.0
1981-08-27 21:12:20.660 ,0,1,0.,24.0,0.,24.0
1981-08-27 21:12:44.660 ,1,1,0.,24.0,0.,24.0
1981-08-27 21:13:08.660 ,2,1,0.,24.0,0.,24.0
1981-08-27 21:13:32.660 ,3,1,0.,24.0,0.,24.0
1981-08-27 21:13:56.660 ,4,1,0.,24.0,0.,24.0
1981-08-27 21:14:20.660 ,5,1,0.,24.0,0.,24.0
1981-08-27 21:14:44.660 ,6,1,0.,24.0,0.,24.0
1981-08-27 21:15:08.660 ,7,1,0.,24.0,0.,24.0
1981-08-27 21:15:32.660 ,7,1,0.,24.0,0.,24.0
1981-08-27 21:15:56.660 ,7,0,0.,24.0,0.,24.0
1981-08-27 21:16:20.660 ,6,1,1.,24.0,0.,24.0
1981-08-27 21:16:44.660 ,6,0,0.,24.0,0.,24.0
1981-08-27 21:17:08.660 ,5,1,0.,24.0,0.,24.0
1981-08-27 21:17:32.660 ,5,0,0.,24.0,0.,24.0
1981-08-27 21:17:56.660 ,4,1,0.,24.0,0.,24.0
1981-08-27 21:18:20.660 ,4,0,0.,24.0,0.,24.0
1981-08-27 21:18:44.660 ,3,1,0.,24.0,0.,24.0
1981-08-27 21:19:08.660 ,3,0,0.,24.0,0.,24.0
1981-08-27 21:19:32.660 ,0,0,0.,24.0,0.,24.0
1981-08-27 21:19:56.660 ,0,0,0.,24.0,0.,24.0
1981-08-27 21:20:20.660 ,1,1,0.,24.0,0.,24.0
1981-08-27 21:20:44.660 ,1,0,0.,24.0,0.,24.0
1981-08-27 21:21:08.660 ,0,1,0.,24.0,0.,24.0
1981-08-27 21:21:32.660 ,0,0,0.,24.0,0.,24.0
1981-08-27 21:21:56.660 ,0,1,0.,24.0,0.,24.0
1981-08-27 21:22:20.660 ,0,0,0.,24.0,0.,24.0
1981-08-27 21:22:44.660 ,1,1,0.,24.0,0.,24.0
1981-08-27 21:23:08.660 ,1,0,0.,24.0,0.,24.0
1981-08-27 21:23:32.660 ,2,1,0.,24.0,0.,24.0
1981-08-27 21:23:56.660 ,2,0,0.,24.0,0.,24.0
1981-08-27 21:24:20.660 ,3,1,0.,24.0,0.,24.0
1981-08-27 21:24:44.660 ,3,0,0.,24.0,0.,24.0
1981-08-27 21:25:08.660 ,4,1,0.,24.0,0.,24.0
1981-08-27 21:25:32.660 ,4,0,0.,24.0,0.,24.0
1981-08-27 21:25:56.660 ,5,1,0.,24.0,0.,24.0
1981-08-27 21:26:20.660 ,5,0,0.,24.0,0.,24.0
1981-08-27 21:26:44.660 ,6,1,0.,24.0,0.,24.0
1981-08-27 21:27:08.660 ,6,0,0.,24.0,0.,24.0
1981-08-27 21:27:32.660 ,7,1,0.,24.0,0.,24.0
1981-08-27 21:27:56.660 ,7,0,0.,24.0,0.,24.0
1981-08-27 21:28:20.660 ,7,1,0.,24.0,0.,24.0
1981-08-27 21:28:44.660 ,6,1,0.,24.0,0.,24.0
1981-08-27 21:29:08.660 ,5,1,0.,24.0,0.,24.0
1981-08-27 21:29:32.660 ,4,1,0.,24.0,0.,24.0
1981-08-27 21:29:56.660 ,3,1,0.,24.0,0.,24.0
1981-08-27 21:30:20.660 ,2,1,0.,24.0,0.,24.0
1981-08-27 21:30:44.660 ,1,1,0.,24.0,0.,24.0
1981-08-27 21:31:08.660 ,0,1,0.,24.0,0.,24.0
1981-08-27 21:31:32.660 ,0,1,0.,24.0,0.,24.0
1981-08-27 21:31:56.660 ,1,1,0.,24.0,0.,24.0
1981-08-27 21:32:20.660 ,2,1,0.,24.0,0.,24.0
1981-08-27 21:32:44.660 ,3,1,0.,24.0,0.,24.0
1981-08-27 21:33:08.660 ,4,1,0.,24.0,0.,24.0
1981-08-27 21:33:32.660 ,5,1,0.,24.0,0.,24.0
1981-08-27 21:33:56.660 ,6,1,0.,24.0,0.,24.0
1981-08-27 21:34:20.660 ,7,1,0.,24.0,0.,24.0
1981-08-27 21:34:44.660 ,7,1,0.,24.0,0.,24.0
1981-08-27 21:35:08.660 ,0,0,,0,,0
1981-08-27 21:35:08.660 ,0,0,0.,24.0,0.,24.0
1981-08-27 21:35:32.660 ,6,1,0.,24.0,0.,24.0
1981-08-27 21:35:56.660 ,6,0,0.,24.0,0.,24.0
1981-08-27 21:36:20.660 ,5,1,0.,24.0,0.,24.0
1981-08-27 21:36:44.660 ,5,0,0.,24.0,0.,24.0
1981-08-27 21:37:08.660 ,4,1,0.,24.0,0.,24.0
1981-08-27 21:37:32.660 ,4,0,0.,24.0,0.,24.0
1981-08-27 21:37:56.660 ,3,1,0.,24.0,0.,24.0
1981-08-27 21:38:20.660 ,3,0,0.,24.0,0.,24.0
1981-08-27 21:38:44.660 ,2,1,0.,24.0,0.,24.0
1981-08-27 21:39:08.660 ,2,0,0.,24.0,0.,24.0
1981-08-27 21:39:32.660 ,1,1,0.,24.0,0.,24.0
1981-08-27 21:39:56.660 ,1,0,0.,24.0,0.,24.0
1981-08-27 21:40:20.660 ,0,1,0.,24.0,0.,24.0
1981-08-27 21:40:44.660 ,0,0,0.,24.0,0.,24.0
1981-08-27 21:41:08.660 ,0,1,0.,24.0,0.,24.0
1981-08-27 21:41:32.660 ,0,0,0.,24.0,0.,24.0
1981-08-27 21:41:56.660 ,1,1,0.,24.0,0.,24.0
1981-08-27 21:42:20.660 ,1,0,0.,24.0,0.,24.0
1981-08-27 21:42:44.660 ,2,1,0.,24.0,0.,24.0
1981-08-27 21:43:08.660 ,2,0,0.,24.0,0.,24.0
1981-08-27 21:43:32.660 ,3,1,0.,24.0,0.,24.0
1981-08-27 21:43:56.660 ,3,0,0.,24.0,0.,24.0
1981-08-27 21:44:20.660 ,4,1,0.,24.0,0.,24.0
1981-08-27 21:44:44.660 ,4,0,0.,24.0,0.,24.0
1981-08-27 21:45:08.660 ,5,1,0.,24.0,0.,24.0
1981-08-27 21:45:32.660 ,5,0,0.,24.0,0.,24.0
1981-08-27 21:45:56.660 ,6,1,0.,24.0,0.,24.0
1981-08-27 21:46:20.660 ,6,0,0.,24.0,0.,24.0
1981-08-27 21:46:44.660 ,7,1,0.,24.0,0.,24.0
1981-08-27 21:47:08.660 ,7,0,0.,24.0,0.,24.0
1981-08-27 21:47:32.660 ,7,1,0.,24.0,0.,24.0
1981-08-27 21:47:56.660 ,6,1,0.,24.0,0.,24.0
1981-08-27 21:48:20.660 ,5,1,0.,24.0,0.,24.0
1981-08-27 21:48:44.660 ,4,1,0.,24.0,0.,24.0
1981-08-27 21:49:08.660 ,3,1,0.,24.0,0.,24.0
1981-08-27 21:49:32.660 ,2,1,0.,24.0,0.,24.0
1981-08-27 21:49:56.660 ,1,1,0.,24.0,0.,24.0
1981-08-27 21:50:20.660 ,0,1,0.,24.0,0.,24.0
1981-08-27 21:50:44.660 ,0,1,0.,24.0,0.,24.0
1981-08-27 21:51:08.660 ,1,1,0.,24.0,0.,24.0
1981-08-27 21:51:32.660 ,2,1,0.,24.0,0.,24.0
1981-08-27 21:51:56.660 ,3,1,0.,24.0,0.,24.0
1981-08-27 21:52:20.660 ,4,1,0.,24.0,0.,24.0
1981-08-27 21:52:44.660 ,5,1,0.,24.0,0.,24.0
1981-08-27 21:53:08.660 ,6,1,0.,24.0,0.,24.0
1981-08-27 21:53:32.660 ,7,1,0.,24.0,0.,24.0
1981-08-27 21:53:56.660 ,7,1,0.,24.0,0.,24.0
1981-08-27 21:54:20.660 ,7,0,0.,24.0,0.,24.0
1981-08-27 21:54:44.660 ,6,1,0.,24.0,0.,24.0
1981-08-27 21:55:08.660 ,6,0,0.,24.0,0.,24.0
1981-08-27 21:55:32.660 ,5,1,0.,24.0,0.,24.0
1981-08-27 21:55:56.660 ,5,0,0.,24.0,0.,24.0
1981-08-27 21:56:20.660 ,4,1,0.,24.0,0.,24.0
1981-08-27 21:56:44.660 ,4,0,0.,24.0,0.,24.0
1981-08-27 21:57:08.660 ,3,1,0.,24.0,0.,24.0
1981-08-27 21:57:32.660 ,3,0,0.,24.0,0.,24.0
1981-08-27 21:57:56.660 ,2,1,0.,24.0,0.,24.0
1981-08-27 21:58:20.660 ,2,0,0.,24.0,0.,24.0
1981-08-27 21:58:44.660 ,1,1,0.,24.0,0.,24.0
1981-08-27 21:59:08.660 ,1,0,0.,24.0,0.,24.0
1981-08-27 21:59:32.660 ,0,1,0.,24.0,0.,24.0
1981-08-27 21:59:56.660 ,0,0,0.,24.0,0.,24.0
1981-08-27 22:00:20.660 ,0,1,0.,24.0,0.,24.0
1981-08-27 22:00:44.660 ,0,0,0.,24.0,0.,24.0
1981-08-27 22:01:08.660 ,1,1,0.,24.0,0.,24.0
1981-08-27 22:01:32.660 ,1,0,0.,24.0,0.,24.0
1981-08-27 22:01:56.660 ,2,1,0.,24.0,0.,24.0
1981-08-27 22:02:20.660 ,2,0,0.,24.0,0.,24.0
1981-08-27 22:02:44.660 ,3,1,0.,24.0,0.,24.0
1981-08-27 22:03:08.660 ,3,0,0.,24.0,0.,24.0
1981-08-27 22:03:32.660 ,4,1,0.,24.0,0.,24.0
1981-08-27 22:03:56.660 ,4,0,0.,24.0,0.,24.0
1981-08-27 22:04:20.660 ,5,1,0.,24.0,0.,24.0
1981-08-27 22:04:44.660 ,5,0,0.,24.0,0.,24.0
1981-08-27 22:05:08.660 ,6,1,0.,24.0,0.,24.0
1981-08-27 22:05:32.660 ,6,0,0.,24.0,0.,24.0
1981-08-27 22:05:56.660 ,7,1,0.,24.0,0.,24.0
1981-08-27 22:06:20.660 ,7,0,0.,24.0,0.,24.0
1981-08-27 22:06:44.660 ,7,1,0.,24.0,0.,24.0
1981-08-27 22:07:08.660 ,6,1,0.,24.0,0.,24.0
1981-08-27 22:07:32.660 ,5,1,0.,24.0,0.,24.0
1981-08-27 22:07:56.660 ,4,1,0.,24.0,0.,24.0
1981-08-27 22:08:20.660 ,3,1,0.,24.0,0.,24.0
1981-08-27 22:08:44.660 ,2,1,0.,24.0,0.,24.0
1981-08-27 22:09:08.660 ,1,1,0.,24.0,0.,24.0
1981-08-27 22:09:32.660 ,0,1,0.,24.0,0.,24.0
1981-08-27 22:09:56.660 ,0,1,0.,24.0,0.,24.0
1981-08-27 22:10:20.660 ,1,1,0.,24.0,0.,24.0
1981-08-27 22:10:44.660 ,2,1,0.,24.0,0.,24.0
1981-08-27 22:11:08.660 ,3,1,0.,24.0,0.,24.0
1981-08-27 22:11:32.660 ,4,1,0.,24.0,0.,24.0
1981-08-27 22:11:56.660 ,5,1,0.,24.0,0.,24.0
1981-08-27 22:12:20.660 ,6,1,0.,24.0,0.,24.0
1981-08-27 22:12:44.660 ,7,1,0.,24.0,0.,24.0
1981-08-27 22:13:08.660 ,7,1,0.,24.0,0.,24.0
1981-08-27 22:13:32.660 ,7,0,0.,24.0,0.,24.0
1981-08-27 22:13:56.660 ,6,1,0.,24.0,0.,24.0
1981-08-27 22:14:20.660 ,6,0,0.,24.0,0.,24.0
1981-08-27 22:14:44.660 ,5,1,0.,24.0,0.,24.0
1981-08-27 22:15:08.660 ,5,0,0.,24.0,0.,24.0
1981-08-27 22:15:32.660 ,4,1,0.,24.0,0.,24.0
1981-08-27 22:15:56.660 ,4,0,0.,24.0,0.,24.0
1981-08-27 22:16:20.660 ,3,1,0.,24.0,0.,24.0
1981-08-27 22:16:44.660 ,3,0,0.,24.0,0.,24.0
1981-08-27 22:17:08.660 ,2,1,0.,24.0,0.,24.0
1981-08-27 22:17:32.660 ,2,0,0.,24.0,0.,24.0
1981-08-27 22:17:56.660 ,1,1,0.,24.0,0.,24.0
1981-08-27 22:18:20.660 ,1,0,0.,24.0,0.,24.0
1981-08-27 22:18:44.660 ,0,1,0.,24.0,0.,24.0
1981-08-27 22:19:08.660 ,0,0,0.,24.0,0.,24.0
1981-08-27 22:19:32.660 ,0,1,0.,24.0,0.,24.0
1981-08-27 22:19:56.660 ,0,0,0.,24.0,0.,24.0
1981-08-27 22:20:20.660 ,1,1,0.,24.0,0.,24.0
1981-08-27 22:20:44.660 ,1,0,0.,24.0,0.,24.0
1981-08-27 22:21:08.660 ,2,1,0.,24.0,0.,24.0
1981-08-27 22:21:32.660 ,2,0,0.,24.0,0.,24.0
1981-08-27 22:21:56.660 ,3,1,0.,24.0,0.,24.0
1981-08-27 22:22:20.660 ,3,0,0.,24.0,0.,24.0
1981-08-27 22:22:44.660 ,4,1,0.,24.0,0.,24.0
1981-08-27 22:23:08.660 ,4,0,0.,24.0,0.,24.0
1981-08-27 22:23:32.660 ,5,1,0.,24.0,0.,24.0
1981-08-27 22:23:56.660 ,5,0,0.,24.0,0.,24.0
1981-08-27 22:24:20.660 ,6,1,0.,24.0,0.,24.0
1981-08-27 22:24:44.660 ,6,0,0.,24.0,0.,24.0
1981-08-27 22:25:08.660 ,7,1,0.,24.0,0.,24.0
1981-08-27 22:25:32.660 ,7,0,0.,24.0,0.,24.0
1981-08-27 22:25:56.660 ,7,1,0.,24.0,0.,24.0
1981-08-27 22:26:20.660 ,6,1,0.,24.0,0.,24.0
1981-08-27 22:26:44.660 ,5,1,0.,24.0,0.,24.0
1981-08-27 22:27:08.660 ,4,1,0.,24.0,0.,24.0
1981-08-27 22:27:32.660 ,3,1,0.,24.0,0.,24.0
1981-08-27 22:27:56.660 ,2,1,0.,24.0,0.,24.0
1981-08-27 22:28:20.660 ,1,1,0.,24.0,0.,24.0
1981-08-27 22:28:44.660 ,0,1,0.,24.0,0.,24.0
1981-08-27 22:29:08.660 ,0,1,0.,24.0,0.,24.0
1981-08-27 22:29:32.660 ,1,1,0.,24.0,0.,24.0
1981-08-27 22:29:56.660 ,2,1,0.,24.0,0.,24.0
1981-08-27 22:30:20.660 ,3,1,0.,24.0,0.,24.0
1981-08-27 22:30:44.660 ,4,1,0.,24.0,0.,24.0
1981-08-27 22:31:08.660 ,5,1,0.,24.0,0.,24.0
1981-08-27 22:31:32.660 ,6,1,0.,24.0,0.,24.0
1981-08-27 22:31:56.660 ,7,1,0.,24.0,0.,24.0
1981-08-27 22:32:20.660 ,7,1,0.,24.0,0.,24.0
1981-08-27 22:32:44.660 ,7,0,0.,24.0,0.,24.0
1981-08-27 22:33:08.660 ,6,1,0.,24.0,0.,24.0
1981-08-27 22:33:32.660 ,6,0,0.,24.0,0.,24.0
1981-08-27 22:33:56.660 ,5,1,0.,24.0,0.,24.0
1981-08-27 22:34:20.660 ,5,0,0.,24.0,0.,24.0
1981-08-27 22:34:44.660 ,4,1,0.,24.0,0.,24.0
1981-08-27 22:35:08.660 ,4,0,0.,24.0,0.,24.0
1981-08-27 22:35:32.660 ,3,1,0.,24.0,0.,24.0
1981-08-27 22:35:56.660 ,3,0,0.,24.0,0.,24.0
1981-08-27 22:36:20.660 ,2,1,0.,24.0,0.,24.0
1981-08-27 22:36:44.660 ,2,0,0.,24.0,0.,24.0
1981-08-27 22:37:08.660 ,1,1,0.,24.0,0.,24.0
1981-08-27 22:37:32.660 ,1,0,0.,24.0,0.,24.0
1981-08-27 22:37:56.660 ,0,1,0.,24.0,0.,24.0
1981-08-27 22:38:20.660 ,0,0,0.,24.0,0.,24.0
1981-08-27 22:38:44.660 ,0,1,0.,24.0,0.,24.0
1981-08-27 22:39:08.660 ,0,0,0.,24.0,0.,24.0
1981-08-27 22:39:32.660 ,1,1,0.,24.0,0.,24.0
1981-08-27 22:39:56.660 ,1,0,0.,24.0,0.,24.0
1981-08-27 22:40:20.660 ,2,1,0.,24.0,0.,24.0
1981-08-27 22:40:44.660 ,2,0,0.,24.0,0.,24.0
1981-08-27 22:41:08.660 ,3,1,0.,24.0,0.,24.0
1981-08-27 22:41:32.660 ,3,0,0.,24.0,0.,24.0
1981-08-27 22:41:56.660 ,4,1,0.,24.0,0.,24.0
1981-08-27 22:42:20.660 ,4,0,0.,24.0,0.,24.0
1981-08-27 22:42:44.660 ,5,1,0.,24.0,0.,24.0
1981-08-27 22:43:08.660 ,5,0,0.,24.0,0.,24.0
1981-08-27 22:43:32.660 ,6,1,0.,24.0,0.,24.0
1981-08-27 22:43:56.660 ,6,0,0.,24.0,0.,24.0
1981-08-27 22:44:20.660 ,7,1,0.,24.0,0.,24.0
1981-08-27 22:44:44.660 ,7,0,0.,24.0,0.,24.0
1981-08-27 22:45:08.660 ,7,1,0.,24.0,0.,24.0
1981-08-27 22:45:32.660 ,6,1,0.,24.0,0.,24.0
1981-08-27 22:45:56.660 ,5,1,0.,24.0,0.,24.0
1981-08-27 22:46:20.660 ,4,1,0.,24.0,0.,24.0
1981-08-27 22:46:44.660 ,3,1,0.,24.0,0.,24.0
1981-08-27 22:47:08.660 ,2,1,0.,24.0,0.,24.0
1981-08-27 22:47:32.660 ,1,1,0.,24.0,0.,24.0
1981-08-27 22:47:56.660 ,0,1,0.,24.0,0.,24.0
1981-08-27 22:48:20.660 ,0,1,0.,24.0,0.,24.0
1981-08-27 22:48:44.660 ,1,1,0.,24.0,0.,24.0
1981-08-27 22:49:08.660 ,2,1,0.,24.0,0.,24.0
1981-08-27 22:49:32.660 ,3,1,0.,24.0,0.,24.0
1981-08-27 22:49:56.660 ,4,1,0.,24.0,0.,24.0
1981-08-27 22:50:20.660 ,5,1,0.,24.0,0.,24.0
1981-08-27 22:50:44.660 ,6,1,0.,24.0,0.,24.0
1981-08-27 22:51:08.660 ,7,1,0.,24.0,0.,24.0
1981-08-27 22:51:32.660 ,7,1,0.,24.0,0.,24.0
1981-08-27 22:51:56.660 ,7,0,0.,24.0,0.,24.0
1981-08-27 22:52:20.660 ,6,1,0.,24.0,0.,24.0
1981-08-27 22:52:44.660 ,6,0,0.,24.0,0.,24.0
1981-08-27 22:53:08.660 ,5,1,0.,24.0,0.,24.0
1981-08-27 22:53:32.660 ,5,0,0.,24.0,0.,24.0
1981-08-27 22:53:56.660 ,4,1,0.,24.0,0.,24.0
1981-08-27 22:54:20.660 ,4,0,0.,24.0,0.,24.0
1981-08-27 22:54:44.660 ,3,1,0.,24.0,0.,24.0
1981-08-27 22:55:08.660 ,3,0,0.,24.0,0.,24.0
1981-08-27 22:55:32.660 ,2,1,0.,24.0,0.,24.0
1981-08-27 22:55:56.660 ,2,0,0.,24.0,0.,24.0
1981-08-27 22:56:20.660 ,1,1,0.,24.0,0.,24.0
1981-08-27 22:56:44.660 ,1,0,0.,24.0,0.,24.0
1981-08-27 22:57:08.650 ,0,1,0.,24.0,0.,24.0
1981-08-27 22:57:32.650 ,0,0,0.,24.0,0.,24.0
1981-08-27 22:57:56.650 ,0,1,0.,24.0,0.,24.0
1981-08-27 22:58:20.650 ,0,0,0.,24.0,0.,24.0
1981-08-27 22:58:44.650 ,1,1,0.,24.0,0.,24.0
1981-08-27 22:59:08.650 ,1,0,0.,24.0,0.,24.0
1981-08-27 22:59:32.650 ,2,1,0.,24.0,0.,24.0
1981-08-27 22:59:56.650 ,2,0,0.,24.0,0.,24.0
1981-08-27 23:00:20.650 ,3,1,0.,24.0,0.,24.0
1981-08-27 23:00:44.660 ,3,0,0.,24.0,0.,24.0
1981-08-27 23:01:08.660 ,4,1,0.,24.0,0.,24.0
1981-08-27 23:01:32.660 ,4,0,0.,24.0,0.,24.0
1981-08-27 23:01:56.660 ,5,1,0.,24.0,0.,24.0
1981-08-27 23:02:20.660 ,5,0,0.,24.0,0.,24.0
1981-08-27 23:02:44.660 ,6,1,0.,24.0,0.,24.0
1981-08-27 23:03:08.660 ,6,0,0.,24.0,0.,24.0
1981-08-27 23:03:32.660 ,7,1,0.,24.0,0.,24.0
1981-08-27 23:03:56.660 ,7,0,0.,24.0,0.,24.0
1981-08-27 23:04:20.660 ,7,1,0.,24.0,0.,24.0
1981-08-27 23:04:44.660 ,6,1,0.,24.0,0.,24.0
1981-08-27 23:05:08.650 ,5,1,0.,24.0,0.,24.0
1981-08-27 23:05:32.660 ,4,1,0.,24.0,0.,24.0
1981-08-27 23:05:56.660 ,3,1,0.,24.0,0.,24.0
1981-08-27 23:06:20.660 ,2,1,0.,24.0,0.,24.0
1981-08-27 23:06:44.660 ,1,1,0.,24.0,0.,24.0
1981-08-27 23:07:08.650 ,0,1,0.,24.0,0.,24.0
1981-08-27 23:07:32.660 ,0,1,0.,24.0,0.,24.0
1981-08-27 23:07:56.660 ,1,1,0.,24.0,0.,24.0
1981-08-27 23:08:20.660 ,2,1,0.,24.0,0.,24.0
1981-08-27 23:08:44.660 ,3,1,0.,24.0,0.,24.0
1981-08-27 23:09:08.660 ,4,1,0.,24.0,0.,24.0
1981-08-27 23:09:32.660 ,5,1,0.,24.0,0.,24.0
1981-08-27 23:09:56.660 ,6,1,0.,24.0,0.,24.0
1981-08-27 23:10:20.660 ,7,1,0.,24.0,0.,24.0
1981-08-27 23:10:44.660 ,7,1,0.,24.0,0.,24.0
1981-08-27 23:11:08.660 ,7,0,0.,24.0,0.,24.0
1981-08-27 23:11:32.660 ,6,1,0.,24.0,0.,24.0
1981-08-27 23:11:56.660 ,6,0,0.,24.0,0.,24.0
1981-08-27 23:12:20.660 ,5,1,0.,24.0,0.,24.0
1981-08-27 23:12:44.660 ,5,0,0.,24.0,0.,24.0
1981-08-27 23:13:08.660 ,4,1,0.,24.0,0.,24.0
1981-08-27 23:13:32.660 ,4,0,0.,24.0,0.,24.0
1981-08-27 23:13:56.650 ,3,1,0.,24.0,0.,24.0
1981-08-27 23:14:20.650 ,3,0,0.,24.0,0.,24.0
1981-08-27 23:14:44.650 ,2,1,0.,24.0,0.,24.0
1981-08-27 23:15:08.650 ,2,0,0.,24.0,0.,24.0
1981-08-27 23:15:32.650 ,1,1,0.,24.0,0.,24.0
1981-08-27 23:15:56.650 ,1,0,0.,24.0,0.,24.0
1981-08-27 23:16:20.650 ,0,1,0.,24.0,0.,24.0
1981-08-27 23:16:44.650 ,0,0,0.,24.0,0.,24.0
1981-08-27 23:17:08.650 ,0,1,0.,24.0,0.,24.0
1981-08-27 23:17:32.650 ,0,0,0.,24.0,0.,24.0
1981-08-27 23:17:56.650 ,1,1,0.,24.0,0.,24.0
1981-08-27 23:18:20.650 ,1,0,0.,24.0,0.,24.0
1981-08-27 23:18:44.650 ,2,1,0.,24.0,0.,24.0
1981-08-27 23:19:08.650 ,2,0,0.,24.0,0.,24.0
1981-08-27 23:19:32.650 ,3,1,0.,24.0,0.,24.0
1981-08-27 23:19:56.650 ,3,0,0.,24.0,0.,24.0
1981-08-27 23:20:20.650 ,4,1,0.,24.0,0.,24.0
1981-08-27 23:20:44.650 ,4,0,0.,24.0,0.,24.0
1981-08-27 23:21:08.650 ,5,1,0.,24.0,0.,24.0
1981-08-27 23:21:32.650 ,5,0,0.,24.0,0.,24.0
1981-08-27 23:21:56.650 ,6,1,0.,24.0,0.,24.0
1981-08-27 23:22:20.650 ,6,0,0.,24.0,0.,24.0
1981-08-27 23:22:44.650 ,7,1,0.,24.0,0.,24.0
1981-08-27 23:23:08.650 ,7,0,0.,24.0,0.,24.0
1981-08-27 23:23:32.650 ,7,1,0.,24.0,0.,24.0
1981-08-27 23:23:56.650 ,6,1,0.,24.0,0.,24.0
1981-08-27 23:24:20.650 ,5,1,0.,24.0,0.,24.0
1981-08-27 23:24:44.650 ,4,1,0.,24.0,0.,24.0
1981-08-27 23:25:08.650 ,3,1,0.,24.0,0.,24.0
1981-08-27 23:25:32.650 ,2,1,0.,24.0,0.,24.0
1981-08-27 23:25:56.650 ,1,1,0.,24.0,0.,24.0
1981-08-27 23:26:20.650 ,0,1,0.,24.0,0.,24.0
1981-08-27 23:26:44.650 ,0,1,0.,24.0,0.,24.0
1981-08-27 23:27:08.650 ,1,1,0.,24.0,0.,24.0
1981-08-27 23:27:32.650 ,2,1,0.,24.0,0.,24.0
1981-08-27 23:27:56.650 ,3,1,0.,24.0,0.,24.0
1981-08-27 23:28:20.650 ,4,1,0.,24.0,0.,24.0
1981-08-27 23:28:44.650 ,5,1,0.,24.0,0.,24.0
1981-08-27 23:29:08.650 ,6,1,0.,24.0,0.,24.0
1981-08-27 23:29:32.650 ,7,1,0.,24.0,0.,24.0
1981-08-27 23:29:56.650 ,7,1,0.,24.0,0.,24.0
1981-08-27 23:30:20.650 ,7,0,0.,24.0,0.,24.0
1981-08-27 23:30:44.650 ,6,1,0.,24.0,0.,24.0
1981-08-27 23:31:08.650 ,6,0,0.,24.0,0.,24.0
1981-08-27 23:31:32.650 ,5,1,0.,24.0,0.,24.0
1981-08-27 23:31:56.650 ,5,0,0.,24.0,0.,24.0
1981-08-27 23:32:20.650 ,4,1,0.,24.0,0.,24.0
1981-08-27 23:32:44.650 ,4,0,0.,24.0,0.,24.0
1981-08-27 23:33:08.650 ,3,1,0.,24.0,0.,24.0
1981-08-27 23:33:32.650 ,3,0,0.,24.0,0.,24.0
1981-08-27 23:33:56.650 ,2,1,0.,24.0,0.,24.0
1981-08-27 23:34:20.650 ,2,0,0.,24.0,0.,24.0
1981-08-27 23:34:44.650 ,1,1,0.,24.0,0.,24.0
1981-08-27 23:35:08.650 ,1,0,0.,24.0,0.,24.0
1981-08-27 23:35:32.650 ,0,1,0.,24.0,0.,24.0
1981-08-27 23:35:56.650 ,0,0,0.,24.0,0.,24.0
1981-08-27 23:36:20.650 ,0,1,0.,24.0,0.,24.0
1981-08-27 23:36:44.650 ,0,0,0.,24.0,0.,24.0
1981-08-27 23:37:08.650 ,1,1,0.,24.0,0.,24.0
1981-08-27 23:37:32.650 ,1,0,0.,24.0,0.,24.0
1981-08-27 23:37:56.650 ,2,1,0.,24.0,0.,24.0
1981-08-27 23:38:20.650 ,2,0,0.,24.0,0.,24.0
1981-08-27 23:38:44.650 ,3,1,0.,24.0,0.,24.0
1981-08-27 23:39:08.650 ,3,0,0.,24.0,0.,24.0
1981-08-27 23:39:32.650 ,4,1,0.,24.0,0.,24.0
1981-08-27 23:39:56.650 ,4,0,0.,24.0,0.,24.0
1981-08-27 23:40:20.650 ,5,1,0.,24.0,0.,24.0
1981-08-27 23:40:44.650 ,5,0,0.,24.0,0.,24.0
1981-08-27 23:41:08.650 ,6,1,0.,24.0,0.,24.0
1981-08-27 23:41:32.650 ,6,0,0.,24.0,0.,24.0
1981-08-27 23:41:56.650 ,7,1,0.,24.0,0.,24.0
1981-08-27 23:42:20.650 ,7,0,0.,24.0,0.,24.0
1981-08-27 23:42:44.650 ,7,1,0.,24.0,0.,24.0
1981-08-27 23:43:08.650 ,6,1,0.,24.0,0.,24.0
1981-08-27 23:43:32.650 ,5,1,0.,24.0,0.,24.0
1981-08-27 23:43:56.650 ,4,1,0.,24.0,0.,24.0
1981-08-27 23:44:20.650 ,3,1,0.,24.0,0.,24.0
1981-08-27 23:44:44.650 ,2,1,0.,24.0,0.,24.0
1981-08-27 23:45:08.650 ,1,1,0.,24.0,0.,24.0
1981-08-27 23:45:32.650 ,0,1,0.,24.0,0.,24.0
1981-08-27 23:45:56.650 ,0,1,0.,24.0,0.,24.0
1981-08-27 23:46:20.650 ,1,1,0.,24.0,0.,24.0
1981-08-27 23:46:44.650 ,2,1,0.,24.0,0.,24.0
1981-08-27 23:47:08.650 ,3,1,0.,24.0,0.,24.0
1981-08-27 23:47:32.650 ,4,1,0.,24.0,0.,24.0
1981-08-27 23:47:56.650 ,5,1,0.,24.0,0.,24.0
1981-08-27 23:48:20.650 ,6,1,0.,24.0,0.,24.0
1981-08-27 23:48:44.650 ,7,1,0.,24.0,0.,24.0
1981-08-27 23:49:08.650 ,7,1,0.,24.0,0.,24.0
1981-08-27 23:49:32.650 ,7,0,0.,24.0,0.,24.0
1981-08-27 23:49:56.650 ,6,1,0.,24.0,0.,24.0
1981-08-27 23:50:20.650 ,6,0,0.,24.0,0.,24.0
1981-08-27 23:50:44.650 ,5,1,0.,24.0,0.,24.0
1981-08-27 23:51:08.650 ,5,0,0.,24.0,0.,24.0
1981-08-27 23:51:32.650 ,4,1,0.,24.0,0.,24.0
1981-08-27 23:51:56.650 ,4,0,0.,24.0,0.,24.0
1981-08-27 23:52:20.650 ,3,1,0.,24.0,0.,24.0
1981-08-27 23:52:44.650 ,3,0,0.,24.0,0.,24.0
1981-08-27 23:53:08.650 ,2,1,1.,24.0,0.,24.0
1981-08-27 23:53:32.650 ,2,0,0.,24.0,0.,24.0
1981-08-27 23:53:56.650 ,1,1,0.,24.0,0.,24.0
1981-08-27 23:54:20.650 ,1,0,0.,24.0,0.,24.0
1981-08-27 23:55:32.650 ,0,0,0.,24.0,0.,24.0
1981-08-27 23:55:56.650 ,0,0,0.,24.0,0.,24.0
1981-08-27 23:56:20.650 ,1,1,0.,24.0,0.,24.0
1981-08-27 23:56:44.650 ,1,0,0.,24.0,0.,24.0
1981-08-27 23:57:08.650 ,2,1,0.,24.0,0.,24.0
1981-08-27 23:57:32.650 ,2,0,0.,24.0,0.,24.0
1981-08-27 23:57:56.650 ,3,1,0.,24.0,0.,24.0
1981-08-27 23:58:20.650 ,3,0,0.,24.0,0.,24.0
1981-08-27 23:58:44.650 ,4,1,0.,24.0,0.,24.0
1981-08-27 23:59:08.650 ,4,0,0.,24.0,0.,24.0
1981-08-27 23:59:32.650 ,5,1,0.,24.0,0.,24.0
1981-08-27 23:59:56.650 ,5,0,0.,24.0,0.,24.0
1981-08-28 00:00:20.650 ,6,1,0.,24.0,0.,24.0
